Year,Month,Day,Hour,Minute,Value (Times are PST for windgust in km/hr)
2013,03,17,00,00,4.80
2013,03,17,00,04,4.80
2013,03,17,00,05,4.80
2013,03,17,00,06,6.40
2013,03,17,00,07,8.10
2013,03,17,00,08,11.30
2013,03,17,00,09,12.90
2013,03,17,00,10,14.50
2013,03,17,00,11,12.90
2013,03,17,00,13,9.60
2013,03,17,00,14,14.50
2013,03,17,00,15,19.30
2013,03,17,00,16,12.90
2013,03,17,00,18,9.60
2013,03,17,00,19,12.90
2013,03,17,00,20,1.60
2013,03,17,00,22,9.60
2013,03,17,00,25,8.10
2013,03,17,00,28,6.40
2013,03,17,00,29,14.50
2013,03,17,00,30,12.90
2013,03,17,00,31,8.10
2013,03,17,00,32,9.60
2013,03,17,00,33,3.20
2013,03,17,00,34,6.40
2013,03,17,00,35,4.80
2013,03,17,00,36,1.60
2013,03,17,00,38,14.50
2013,03,17,00,39,16.10
2013,03,17,00,40,24.20
2013,03,17,00,41,11.30
2013,03,17,00,42,14.50
2013,03,17,00,43,20.90
2013,03,17,00,44,19.30
2013,03,17,00,45,12.90
2013,03,17,00,46,9.60
2013,03,17,00,47,19.30
2013,03,17,00,48,19.30
2013,03,17,00,49,12.90
2013,03,17,00,50,22.50
2013,03,17,00,51,19.30
2013,03,17,00,52,17.70
2013,03,17,00,53,12.90
2013,03,17,00,54,8.10
2013,03,17,00,55,12.90
2013,03,17,00,56,8.10
2013,03,17,00,57,19.30
2013,03,17,00,58,9.60
2013,03,17,00,59,11.30
2013,03,17,01,00,4.80
2013,03,17,01,01,11.30
2013,03,17,01,02,6.40
2013,03,17,01,03,6.40
2013,03,17,01,04,4.80
2013,03,17,01,05,3.20
2013,03,17,01,06,11.30
2013,03,17,01,07,1.60
2013,03,17,01,08,8.10
2013,03,17,01,09,4.80
2013,03,17,01,10,9.60
2013,03,17,01,14,1.60
2013,03,17,01,16,11.30
2013,03,17,01,17,1.60
2013,03,17,01,18,8.10
2013,03,17,01,37,8.10
2013,03,17,01,38,8.10
2013,03,17,01,43,6.40
2013,03,17,01,44,6.40
2013,03,17,01,45,1.60
2013,03,17,01,46,1.60
2013,03,17,01,48,8.10
2013,03,17,01,49,17.70
2013,03,17,01,50,16.10
2013,03,17,01,51,9.60
2013,03,17,01,52,8.10
2013,03,17,01,57,6.40
2013,03,17,01,58,9.60
2013,03,17,02,04,8.10
2013,03,17,02,05,6.40
2013,03,17,02,57,1.60
2013,03,17,03,21,1.60
2013,03,17,03,32,8.10
2013,03,17,03,33,12.90
2013,03,17,03,34,8.10
2013,03,17,04,31,4.80
2013,03,17,04,34,4.80
2013,03,17,04,50,4.80
2013,03,17,04,51,6.40
2013,03,17,04,52,3.20
2013,03,17,04,57,6.40
2013,03,17,04,58,6.40
2013,03,17,05,02,6.40
2013,03,17,05,44,1.60
2013,03,17,05,45,9.60
2013,03,17,05,49,8.10
2013,03,17,05,50,9.60
2013,03,17,05,51,19.30
2013,03,17,05,52,9.60
2013,03,17,05,53,6.40
2013,03,17,05,54,1.60
2013,03,17,05,55,9.60
2013,03,17,05,56,8.10
2013,03,17,05,57,9.60
2013,03,17,05,58,14.50
2013,03,17,05,59,19.30
2013,03,17,06,00,17.70
2013,03,17,06,01,9.60
2013,03,17,06,02,14.50
2013,03,17,06,03,8.10
2013,03,17,06,04,14.50
2013,03,17,06,05,19.30
2013,03,17,06,06,20.90
2013,03,17,06,07,12.90
2013,03,17,06,08,6.40
2013,03,17,06,09,8.10
2013,03,17,06,10,11.30
2013,03,17,06,11,19.30
2013,03,17,06,12,14.50
2013,03,17,06,13,19.30
2013,03,17,06,14,12.90
2013,03,17,06,15,17.70
2013,03,17,06,16,12.90
2013,03,17,06,17,11.30
2013,03,17,06,18,12.90
2013,03,17,06,19,9.60
2013,03,17,06,20,12.90
2013,03,17,06,21,11.30
2013,03,17,06,22,11.30
2013,03,17,06,23,20.90
2013,03,17,06,24,12.90
2013,03,17,06,25,22.50
2013,03,17,06,26,12.90
2013,03,17,06,27,12.90
2013,03,17,06,28,12.90
2013,03,17,06,29,11.30
2013,03,17,06,30,3.20
2013,03,17,06,31,9.60
2013,03,17,06,32,16.10
2013,03,17,06,33,12.90
2013,03,17,06,34,11.30
2013,03,17,06,35,11.30
2013,03,17,06,36,17.70
2013,03,17,06,37,14.50
2013,03,17,06,38,9.60
2013,03,17,06,39,4.80
2013,03,17,06,40,19.30
2013,03,17,06,41,14.50
2013,03,17,06,42,11.30
2013,03,17,06,43,16.10
2013,03,17,06,44,14.50
2013,03,17,06,45,24.20
2013,03,17,06,46,14.50
2013,03,17,06,47,14.50
2013,03,17,06,48,12.90
2013,03,17,06,49,19.30
2013,03,17,06,50,11.30
2013,03,17,06,51,20.90
2013,03,17,06,52,17.70
2013,03,17,06,53,16.10
2013,03,17,06,54,9.60
2013,03,17,06,55,14.50
2013,03,17,06,56,17.70
2013,03,17,06,57,20.90
2013,03,17,06,58,11.30
2013,03,17,06,59,14.50
2013,03,17,07,00,16.10
2013,03,17,07,01,9.60
2013,03,17,07,02,11.30
2013,03,17,07,03,9.60
2013,03,17,07,04,29.00
2013,03,17,07,05,14.50
2013,03,17,07,06,17.70
2013,03,17,07,07,17.70
2013,03,17,07,08,22.50
2013,03,17,07,09,17.70
2013,03,17,07,10,14.50
2013,03,17,07,11,8.10
2013,03,17,07,12,8.10
2013,03,17,07,13,16.10
2013,03,17,07,14,12.90
2013,03,17,07,15,17.70
2013,03,17,07,16,11.30
2013,03,17,07,17,29.00
2013,03,17,07,18,22.50
2013,03,17,07,19,20.90
2013,03,17,07,20,17.70
2013,03,17,07,21,9.60
2013,03,17,07,22,6.40
2013,03,17,07,23,6.40
2013,03,17,07,24,17.70
2013,03,17,07,25,14.50
2013,03,17,07,26,17.70
2013,03,17,07,27,11.30
2013,03,17,07,28,9.60
2013,03,17,07,29,11.30
2013,03,17,07,30,8.10
2013,03,17,07,31,17.70
2013,03,17,07,32,11.30
2013,03,17,07,33,12.90
2013,03,17,07,34,8.10
2013,03,17,07,35,12.90
2013,03,17,07,36,9.60
2013,03,17,07,37,9.60
2013,03,17,07,38,8.10
2013,03,17,07,39,4.80
2013,03,17,07,40,14.50
2013,03,17,07,41,11.30
2013,03,17,07,42,11.30
2013,03,17,07,43,11.30
2013,03,17,07,44,6.40
2013,03,17,07,45,17.70
2013,03,17,07,46,11.30
2013,03,17,07,47,17.70
2013,03,17,07,48,19.30
2013,03,17,07,49,9.60
2013,03,17,07,50,19.30
2013,03,17,07,51,25.70
2013,03,17,07,52,24.20
2013,03,17,07,53,9.60
2013,03,17,07,54,6.40
2013,03,17,07,55,11.30
2013,03,17,07,56,12.90
2013,03,17,07,57,24.20
2013,03,17,07,58,20.90
2013,03,17,07,59,12.90
2013,03,17,08,00,9.60
2013,03,17,08,01,12.90
2013,03,17,08,02,9.60
2013,03,17,08,03,11.30
2013,03,17,08,04,9.60
2013,03,17,08,05,24.20
2013,03,17,08,06,20.90
2013,03,17,08,07,17.70
2013,03,17,08,08,17.70
2013,03,17,08,09,17.70
2013,03,17,08,10,12.90
2013,03,17,08,11,9.60
2013,03,17,08,12,14.50
2013,03,17,08,13,17.70
2013,03,17,08,14,14.50
2013,03,17,08,15,12.90
2013,03,17,08,16,8.10
2013,03,17,08,17,8.10
2013,03,17,08,18,9.60
2013,03,17,08,19,19.30
2013,03,17,08,20,25.70
2013,03,17,08,21,27.40
2013,03,17,08,22,20.90
2013,03,17,08,23,24.20
2013,03,17,08,24,17.70
2013,03,17,08,25,11.30
2013,03,17,08,26,12.90
2013,03,17,08,27,12.90
2013,03,17,08,28,32.20
2013,03,17,08,29,20.90
2013,03,17,08,30,24.20
2013,03,17,08,31,17.70
2013,03,17,08,32,12.90
2013,03,17,08,33,20.90
2013,03,17,08,34,30.60
2013,03,17,08,35,20.90
2013,03,17,08,36,17.70
2013,03,17,08,37,30.60
2013,03,17,08,38,30.60
2013,03,17,08,39,30.60
2013,03,17,08,40,24.20
2013,03,17,08,41,16.10
2013,03,17,08,42,24.20
2013,03,17,08,43,12.90
2013,03,17,08,44,27.40
2013,03,17,08,45,22.50
2013,03,17,08,46,17.70
2013,03,17,08,47,25.70
2013,03,17,08,48,25.70
2013,03,17,08,49,24.20
2013,03,17,08,50,19.30
2013,03,17,08,51,14.50
2013,03,17,08,52,14.50
2013,03,17,08,53,32.20
2013,03,17,08,54,35.40
2013,03,17,08,55,30.60
2013,03,17,08,56,29.00
2013,03,17,08,57,32.20
2013,03,17,08,58,20.90
2013,03,17,08,59,30.60
2013,03,17,09,00,30.60
2013,03,17,09,01,25.70
2013,03,17,09,02,27.40
2013,03,17,09,03,35.40
2013,03,17,09,04,27.40
2013,03,17,09,05,12.90
2013,03,17,09,06,11.30
2013,03,17,09,07,9.60
2013,03,17,09,08,16.10
2013,03,17,09,09,24.20
2013,03,17,09,10,11.30
2013,03,17,09,11,35.40
2013,03,17,09,12,30.60
2013,03,17,09,13,24.20
2013,03,17,09,14,35.40
2013,03,17,09,15,27.40
2013,03,17,09,16,24.20
2013,03,17,09,17,22.50
2013,03,17,09,18,17.70
2013,03,17,09,19,22.50
2013,03,17,09,20,25.70
2013,03,17,09,21,17.70
2013,03,17,09,22,20.90
2013,03,17,09,23,35.40
2013,03,17,09,24,27.40
2013,03,17,09,25,27.40
2013,03,17,09,26,29.00
2013,03,17,09,27,24.20
2013,03,17,09,28,20.90
2013,03,17,09,29,14.50
2013,03,17,09,30,25.70
2013,03,17,09,31,29.00
2013,03,17,09,32,17.70
2013,03,17,09,33,12.90
2013,03,17,09,34,16.10
2013,03,17,09,35,30.60
2013,03,17,09,36,24.20
2013,03,17,09,37,24.20
2013,03,17,09,38,22.50
2013,03,17,09,39,32.20
2013,03,17,09,40,32.20
2013,03,17,09,41,17.70
2013,03,17,09,42,22.50
2013,03,17,09,43,20.90
2013,03,17,09,44,25.70
2013,03,17,09,45,19.30
2013,03,17,09,46,19.30
2013,03,17,09,47,25.70
2013,03,17,09,48,38.60
2013,03,17,09,49,17.70
2013,03,17,09,50,20.90
2013,03,17,09,51,29.00
2013,03,17,09,52,29.00
2013,03,17,09,53,19.30
2013,03,17,09,54,14.50
2013,03,17,09,55,32.20
2013,03,17,09,56,22.50
2013,03,17,09,57,11.30
2013,03,17,09,58,29.00
2013,03,17,09,59,24.20
2013,03,17,10,00,30.60
2013,03,17,10,01,17.70
2013,03,17,10,02,20.90
2013,03,17,10,03,24.20
2013,03,17,10,04,17.70
2013,03,17,10,05,22.50
2013,03,17,10,06,30.60
2013,03,17,10,07,24.20
2013,03,17,10,08,25.70
2013,03,17,10,09,16.10
2013,03,17,10,10,11.30
2013,03,17,10,11,20.90
2013,03,17,10,12,27.40
2013,03,17,10,13,14.50
2013,03,17,10,14,20.90
2013,03,17,10,15,19.30
2013,03,17,10,16,12.90
2013,03,17,10,17,11.30
2013,03,17,10,18,12.90
2013,03,17,10,19,17.70
2013,03,17,10,20,40.20
2013,03,17,10,21,37.00
2013,03,17,10,22,32.20
2013,03,17,10,23,46.70
2013,03,17,10,24,19.30
2013,03,17,10,25,30.60
2013,03,17,10,26,29.00
2013,03,17,10,27,29.00
2013,03,17,10,28,30.60
2013,03,17,10,29,22.50
2013,03,17,10,30,24.20
2013,03,17,10,31,29.00
2013,03,17,10,32,30.60
2013,03,17,10,33,19.30
2013,03,17,10,34,20.90
2013,03,17,10,35,27.40
2013,03,17,10,36,20.90
2013,03,17,10,37,14.50
2013,03,17,10,38,19.30
2013,03,17,10,39,19.30
2013,03,17,10,40,33.80
2013,03,17,10,41,35.40
2013,03,17,10,42,33.80
2013,03,17,10,43,40.20
2013,03,17,10,44,24.20
2013,03,17,10,45,25.70
2013,03,17,10,46,29.00
2013,03,17,10,47,24.20
2013,03,17,10,48,33.80
2013,03,17,10,49,37.00
2013,03,17,10,50,25.70
2013,03,17,10,51,17.70
2013,03,17,10,52,12.90
2013,03,17,10,53,20.90
2013,03,17,10,54,12.90
2013,03,17,10,55,22.50
2013,03,17,10,56,17.70
2013,03,17,10,57,35.40
2013,03,17,10,58,46.70
2013,03,17,10,59,37.00
2013,03,17,11,00,32.20
2013,03,17,11,01,32.20
2013,03,17,11,02,33.80
2013,03,17,11,03,35.40
2013,03,17,11,04,22.50
2013,03,17,11,05,35.40
2013,03,17,11,06,19.30
2013,03,17,11,07,20.90
2013,03,17,11,08,19.30
2013,03,17,11,09,30.60
2013,03,17,11,10,17.70
2013,03,17,11,11,29.00
2013,03,17,11,12,25.70
2013,03,17,11,13,27.40
2013,03,17,11,14,20.90
2013,03,17,11,15,19.30
2013,03,17,11,16,30.60
2013,03,17,11,17,25.70
2013,03,17,11,18,40.20
2013,03,17,11,19,33.80
2013,03,17,11,20,19.30
2013,03,17,11,21,33.80
2013,03,17,11,22,30.60
2013,03,17,11,23,29.00
2013,03,17,11,24,45.10
2013,03,17,11,25,24.20
2013,03,17,11,26,32.20
2013,03,17,11,27,33.80
2013,03,17,11,28,22.50
2013,03,17,11,29,30.60
2013,03,17,11,30,14.50
2013,03,17,11,31,20.90
2013,03,17,11,32,29.00
2013,03,17,11,33,19.30
2013,03,17,11,34,16.10
2013,03,17,11,35,17.70
2013,03,17,11,36,24.20
2013,03,17,11,37,20.90
2013,03,17,11,38,14.50
2013,03,17,11,39,8.10
2013,03,17,11,40,11.30
2013,03,17,11,41,17.70
2013,03,17,11,42,20.90
2013,03,17,11,43,20.90
2013,03,17,11,44,14.50
2013,03,17,11,45,14.50
2013,03,17,11,46,27.40
2013,03,17,11,47,19.30
2013,03,17,11,48,11.30
2013,03,17,11,49,29.00
2013,03,17,11,50,27.40
2013,03,17,11,51,20.90
2013,03,17,11,52,30.60
2013,03,17,11,53,16.10
2013,03,17,11,54,30.60
2013,03,17,11,55,24.20
2013,03,17,11,56,32.20
2013,03,17,11,57,20.90
2013,03,17,11,58,27.40
2013,03,17,11,59,20.90
2013,03,17,12,00,32.20
2013,03,17,12,01,22.50
2013,03,17,12,02,25.70
2013,03,17,12,03,19.30
2013,03,17,12,04,17.70
2013,03,17,12,05,27.40
2013,03,17,12,06,22.50
2013,03,17,12,07,25.70
2013,03,17,12,08,27.40
2013,03,17,12,09,24.20
2013,03,17,12,10,24.20
2013,03,17,12,11,19.30
2013,03,17,12,12,30.60
2013,03,17,12,13,22.50
2013,03,17,12,14,25.70
2013,03,17,12,15,30.60
2013,03,17,12,16,30.60
2013,03,17,12,17,25.70
2013,03,17,12,18,33.80
2013,03,17,12,19,25.70
2013,03,17,12,20,27.40
2013,03,17,12,21,25.70
2013,03,17,12,22,16.10
2013,03,17,12,23,17.70
2013,03,17,12,24,24.20
2013,03,17,12,25,17.70
2013,03,17,12,26,20.90
2013,03,17,12,27,38.60
2013,03,17,12,28,27.40
2013,03,17,12,29,27.40
2013,03,17,12,30,17.70
2013,03,17,12,31,20.90
2013,03,17,12,32,29.00
2013,03,17,12,33,30.60
2013,03,17,12,34,35.40
2013,03,17,12,35,24.20
2013,03,17,12,36,35.40
2013,03,17,12,37,30.60
2013,03,17,12,38,29.00
2013,03,17,12,39,24.20
2013,03,17,12,40,30.60
2013,03,17,12,41,30.60
2013,03,17,12,42,30.60
2013,03,17,12,43,19.30
2013,03,17,12,44,12.90
2013,03,17,12,45,12.90
2013,03,17,12,46,27.40
2013,03,17,12,47,27.40
2013,03,17,12,48,20.90
2013,03,17,12,49,25.70
2013,03,17,12,50,41.80
2013,03,17,12,51,32.20
2013,03,17,12,52,29.00
2013,03,17,12,53,32.20
2013,03,17,12,54,24.20
2013,03,17,12,55,32.20
2013,03,17,12,56,30.60
2013,03,17,12,57,38.60
2013,03,17,12,58,27.40
2013,03,17,12,59,24.20
2013,03,17,13,00,24.20
2013,03,17,13,01,33.80
2013,03,17,13,02,24.20
2013,03,17,13,03,25.70
2013,03,17,13,04,16.10
2013,03,17,13,05,24.20
2013,03,17,13,06,22.50
2013,03,17,13,07,38.60
2013,03,17,13,08,27.40
2013,03,17,13,09,22.50
2013,03,17,13,10,16.10
2013,03,17,13,11,20.90
2013,03,17,13,12,29.00
2013,03,17,13,13,24.20
2013,03,17,13,14,24.20
2013,03,17,13,15,27.40
2013,03,17,13,16,32.20
2013,03,17,13,17,40.20
2013,03,17,13,18,24.20
2013,03,17,13,19,30.60
2013,03,17,13,20,27.40
2013,03,17,13,21,24.20
2013,03,17,13,22,25.70
2013,03,17,13,23,12.90
2013,03,17,13,24,14.50
2013,03,17,13,25,9.60
2013,03,17,13,26,17.70
2013,03,17,13,27,33.80
2013,03,17,13,28,20.90
2013,03,17,13,29,17.70
2013,03,17,13,30,29.00
2013,03,17,13,31,17.70
2013,03,17,13,32,20.90
2013,03,17,13,33,22.50
2013,03,17,13,34,25.70
2013,03,17,13,35,20.90
2013,03,17,13,36,17.70
2013,03,17,13,37,24.20
2013,03,17,13,38,17.70
2013,03,17,13,39,19.30
2013,03,17,13,40,25.70
2013,03,17,13,41,27.40
2013,03,17,13,42,22.50
2013,03,17,13,43,20.90
2013,03,17,13,44,24.20
2013,03,17,13,45,32.20
2013,03,17,13,46,20.90
2013,03,17,13,47,33.80
2013,03,17,13,48,24.20
2013,03,17,13,49,17.70
2013,03,17,13,50,33.80
2013,03,17,13,51,20.90
2013,03,17,13,52,27.40
2013,03,17,13,53,29.00
2013,03,17,13,54,27.40
2013,03,17,13,55,22.50
2013,03,17,13,56,27.40
2013,03,17,13,57,30.60
2013,03,17,13,58,24.20
2013,03,17,13,59,16.10
2013,03,17,14,00,30.60
2013,03,17,14,01,17.70
2013,03,17,14,02,22.50
2013,03,17,14,03,20.90
2013,03,17,14,04,30.60
2013,03,17,14,05,29.00
2013,03,17,14,06,29.00
2013,03,17,14,07,25.70
2013,03,17,14,08,19.30
2013,03,17,14,09,16.10
2013,03,17,14,10,29.00
2013,03,17,14,11,20.90
2013,03,17,14,12,22.50
2013,03,17,14,13,29.00
2013,03,17,14,14,40.20
2013,03,17,14,15,22.50
2013,03,17,14,16,12.90
2013,03,17,14,17,17.70
2013,03,17,14,18,30.60
2013,03,17,14,19,22.50
2013,03,17,14,20,29.00
2013,03,17,14,21,32.20
2013,03,17,14,22,33.80
2013,03,17,14,23,25.70
2013,03,17,14,24,25.70
2013,03,17,14,25,24.20
2013,03,17,14,26,24.20
2013,03,17,14,27,17.70
2013,03,17,14,28,22.50
2013,03,17,14,29,11.30
2013,03,17,14,30,25.70
2013,03,17,14,31,19.30
2013,03,17,14,32,19.30
2013,03,17,14,33,12.90
2013,03,17,14,34,27.40
2013,03,17,14,35,32.20
2013,03,17,14,36,20.90
2013,03,17,14,37,17.70
2013,03,17,14,38,24.20
2013,03,17,14,39,30.60
2013,03,17,14,40,30.60
2013,03,17,14,41,32.20
2013,03,17,14,42,32.20
2013,03,17,14,43,25.70
2013,03,17,14,44,30.60
2013,03,17,14,45,30.60
2013,03,17,14,46,37.00
2013,03,17,14,47,29.00
2013,03,17,14,48,12.90
2013,03,17,14,49,19.30
2013,03,17,14,50,25.70
2013,03,17,14,51,20.90
2013,03,17,14,52,27.40
2013,03,17,14,53,30.60
2013,03,17,14,54,24.20
2013,03,17,14,55,24.20
2013,03,17,14,56,33.80
2013,03,17,14,57,27.40
2013,03,17,14,58,20.90
2013,03,17,14,59,12.90
2013,03,17,15,00,20.90
2013,03,17,15,01,30.60
2013,03,17,15,02,17.70
2013,03,17,15,03,17.70
2013,03,17,15,04,19.30
2013,03,17,15,05,40.20
2013,03,17,15,06,35.40
2013,03,17,15,07,37.00
2013,03,17,15,08,35.40
2013,03,17,15,09,35.40
2013,03,17,15,10,40.20
2013,03,17,15,11,30.60
2013,03,17,15,12,24.20
2013,03,17,15,13,24.20
2013,03,17,15,14,24.20
2013,03,17,15,15,33.80
2013,03,17,15,16,38.60
2013,03,17,15,17,35.40
2013,03,17,15,18,37.00
2013,03,17,15,19,40.20
2013,03,17,15,20,41.80
2013,03,17,15,21,35.40
2013,03,17,15,22,38.60
2013,03,17,15,23,17.70
2013,03,17,15,24,27.40
2013,03,17,15,25,29.00
2013,03,17,15,26,37.00
2013,03,17,15,27,24.20
2013,03,17,15,28,33.80
2013,03,17,15,29,33.80
2013,03,17,15,30,24.20
2013,03,17,15,31,30.60
2013,03,17,15,32,16.10
2013,03,17,15,33,20.90
2013,03,17,15,34,30.60
2013,03,17,15,35,29.00
2013,03,17,15,36,33.80
2013,03,17,15,37,16.10
2013,03,17,15,38,27.40
2013,03,17,15,39,20.90
2013,03,17,15,40,17.70
2013,03,17,15,41,24.20
2013,03,17,15,42,22.50
2013,03,17,15,43,22.50
2013,03,17,15,44,17.70
2013,03,17,15,45,32.20
2013,03,17,15,46,29.00
2013,03,17,15,47,29.00
2013,03,17,15,48,20.90
2013,03,17,15,49,19.30
2013,03,17,15,50,14.50
2013,03,17,15,51,25.70
2013,03,17,15,52,12.90
2013,03,17,15,53,25.70
2013,03,17,15,54,20.90
2013,03,17,15,55,20.90
2013,03,17,15,56,24.20
2013,03,17,15,57,14.50
2013,03,17,15,58,22.50
2013,03,17,15,59,24.20
2013,03,17,16,00,24.20
2013,03,17,16,01,24.20
2013,03,17,16,02,24.20
2013,03,17,16,03,33.80
2013,03,17,16,04,20.90
2013,03,17,16,05,20.90
2013,03,17,16,06,37.00
2013,03,17,16,07,20.90
2013,03,17,16,08,29.00
2013,03,17,16,09,32.20
2013,03,17,16,10,24.20
2013,03,17,16,11,30.60
2013,03,17,16,12,35.40
2013,03,17,16,13,17.70
2013,03,17,16,14,33.80
2013,03,17,16,15,27.40
2013,03,17,16,16,33.80
2013,03,17,16,17,35.40
2013,03,17,16,18,25.70
2013,03,17,16,19,24.20
2013,03,17,16,20,11.30
2013,03,17,16,21,12.90
2013,03,17,16,22,12.90
2013,03,17,16,23,9.60
2013,03,17,16,24,16.10
2013,03,17,16,25,14.50
2013,03,17,16,26,20.90
2013,03,17,16,27,11.30
2013,03,17,16,28,20.90
2013,03,17,16,29,17.70
2013,03,17,16,30,30.60
2013,03,17,16,31,32.20
2013,03,17,16,32,32.20
2013,03,17,16,33,32.20
2013,03,17,16,34,30.60
2013,03,17,16,35,32.20
2013,03,17,16,36,33.80
2013,03,17,16,37,19.30
2013,03,17,16,38,30.60
2013,03,17,16,39,32.20
2013,03,17,16,40,17.70
2013,03,17,16,41,11.30
2013,03,17,16,42,29.00
2013,03,17,16,43,38.60
2013,03,17,16,44,27.40
2013,03,17,16,45,29.00
2013,03,17,16,46,20.90
2013,03,17,16,47,46.70
2013,03,17,16,48,27.40
2013,03,17,16,49,24.20
2013,03,17,16,50,20.90
2013,03,17,16,51,17.70
2013,03,17,16,52,20.90
2013,03,17,16,53,22.50
2013,03,17,16,54,25.70
2013,03,17,16,55,22.50
2013,03,17,16,56,19.30
2013,03,17,16,57,41.80
2013,03,17,16,58,27.40
2013,03,17,16,59,27.40
2013,03,17,17,00,33.80
2013,03,17,17,01,32.20
2013,03,17,17,02,22.50
2013,03,17,17,03,25.70
2013,03,17,17,04,29.00
2013,03,17,17,05,19.30
2013,03,17,17,06,32.20
2013,03,17,17,07,22.50
2013,03,17,17,08,20.90
2013,03,17,17,09,17.70
2013,03,17,17,10,37.00
2013,03,17,17,11,38.60
2013,03,17,17,12,37.00
2013,03,17,17,13,35.40
2013,03,17,17,14,35.40
2013,03,17,17,15,33.80
2013,03,17,17,16,20.90
2013,03,17,17,17,24.20
2013,03,17,17,18,17.70
2013,03,17,17,19,25.70
2013,03,17,17,20,30.60
2013,03,17,17,21,22.50
2013,03,17,17,22,17.70
2013,03,17,17,23,27.40
2013,03,17,17,24,22.50
2013,03,17,17,25,30.60
2013,03,17,17,26,32.20
2013,03,17,17,27,19.30
2013,03,17,17,28,19.30
2013,03,17,17,29,24.20
2013,03,17,17,30,25.70
2013,03,17,17,31,14.50
2013,03,17,17,32,20.90
2013,03,17,17,33,14.50
2013,03,17,17,34,32.20
2013,03,17,17,35,30.60
2013,03,17,17,36,24.20
2013,03,17,17,37,19.30
2013,03,17,17,38,17.70
2013,03,17,17,39,20.90
2013,03,17,17,40,29.00
2013,03,17,17,41,30.60
2013,03,17,17,42,25.70
2013,03,17,17,43,20.90
2013,03,17,17,44,22.50
2013,03,17,17,45,12.90
2013,03,17,17,46,17.70
2013,03,17,17,47,12.90
2013,03,17,17,48,32.20
2013,03,17,17,49,32.20
2013,03,17,17,50,20.90
2013,03,17,17,51,27.40
2013,03,17,17,52,22.50
2013,03,17,17,53,12.90
2013,03,17,17,54,25.70
2013,03,17,17,55,29.00
2013,03,17,17,56,25.70
2013,03,17,17,57,22.50
2013,03,17,17,58,20.90
2013,03,17,17,59,22.50
2013,03,17,18,00,24.20
2013,03,17,18,01,24.20
2013,03,17,18,02,20.90
2013,03,17,18,03,9.60
2013,03,17,18,04,24.20
2013,03,17,18,05,11.30
2013,03,17,18,06,20.90
2013,03,17,18,07,20.90
2013,03,17,18,08,19.30
2013,03,17,18,09,17.70
2013,03,17,18,10,9.60
2013,03,17,18,11,25.70
2013,03,17,18,12,19.30
2013,03,17,18,13,29.00
2013,03,17,18,14,17.70
2013,03,17,18,15,20.90
2013,03,17,18,16,14.50
2013,03,17,18,17,12.90
2013,03,17,18,18,24.20
2013,03,17,18,19,17.70
2013,03,17,18,20,16.10
2013,03,17,18,21,20.90
2013,03,17,18,22,17.70
2013,03,17,18,23,22.50
2013,03,17,18,24,29.00
2013,03,17,18,25,24.20
2013,03,17,18,26,19.30
2013,03,17,18,27,17.70
2013,03,17,18,28,12.90
2013,03,17,18,29,25.70
2013,03,17,18,30,33.80
2013,03,17,18,31,24.20
2013,03,17,18,32,16.10
2013,03,17,18,33,19.30
2013,03,17,18,34,19.30
2013,03,17,18,35,20.90
2013,03,17,18,36,25.70
2013,03,17,18,37,19.30
2013,03,17,18,38,22.50
2013,03,17,18,39,19.30
2013,03,17,18,40,19.30
2013,03,17,18,41,19.30
2013,03,17,18,42,24.20
2013,03,17,18,43,24.20
2013,03,17,18,44,22.50
2013,03,17,18,45,32.20
2013,03,17,18,46,17.70
2013,03,17,18,47,27.40
2013,03,17,18,48,17.70
2013,03,17,18,49,8.10
2013,03,17,18,50,19.30
2013,03,17,18,51,29.00
2013,03,17,18,52,19.30
2013,03,17,18,53,17.70
2013,03,17,18,54,38.60
2013,03,17,18,55,22.50
2013,03,17,18,56,22.50
2013,03,17,18,57,22.50
2013,03,17,18,58,25.70
2013,03,17,18,59,29.00
2013,03,17,19,00,25.70
2013,03,17,19,01,32.20
2013,03,17,19,02,27.40
2013,03,17,19,03,33.80
2013,03,17,19,04,37.00
2013,03,17,19,05,9.60
2013,03,17,19,06,25.70
2013,03,17,19,07,12.90
2013,03,17,19,08,20.90
2013,03,17,19,09,17.70
2013,03,17,19,10,27.40
2013,03,17,19,11,24.20
2013,03,17,19,12,17.70
2013,03,17,19,13,17.70
2013,03,17,19,14,20.90
2013,03,17,19,15,25.70
2013,03,17,19,16,29.00
2013,03,17,19,17,24.20
2013,03,17,19,18,43.50
2013,03,17,19,19,16.10
2013,03,17,19,20,22.50
2013,03,17,19,21,17.70
2013,03,17,19,22,17.70
2013,03,17,19,23,32.20
2013,03,17,19,24,17.70
2013,03,17,19,25,11.30
2013,03,17,19,26,6.40
2013,03,17,19,27,19.30
2013,03,17,19,28,17.70
2013,03,17,19,29,32.20
2013,03,17,19,30,29.00
2013,03,17,19,31,9.60
2013,03,17,19,32,14.50
2013,03,17,19,33,12.90
2013,03,17,19,34,25.70
2013,03,17,19,35,17.70
2013,03,17,19,36,12.90
2013,03,17,19,37,20.90
2013,03,17,19,38,19.30
2013,03,17,19,39,27.40
2013,03,17,19,40,19.30
2013,03,17,19,41,22.50
2013,03,17,19,42,16.10
2013,03,17,19,43,16.10
2013,03,17,19,44,17.70
2013,03,17,19,45,24.20
2013,03,17,19,46,24.20
2013,03,17,19,47,29.00
2013,03,17,19,48,29.00
2013,03,17,19,49,35.40
2013,03,17,19,50,22.50
2013,03,17,19,51,22.50
2013,03,17,19,52,30.60
2013,03,17,19,53,20.90
2013,03,17,19,54,27.40
2013,03,17,19,55,45.10
2013,03,17,19,56,24.20
2013,03,17,19,57,19.30
2013,03,17,19,58,22.50
2013,03,17,19,59,19.30
2013,03,17,20,00,27.40
2013,03,17,20,01,22.50
2013,03,17,20,02,20.90
2013,03,17,20,03,17.70
2013,03,17,20,04,14.50
2013,03,17,20,05,19.30
2013,03,17,20,06,16.10
2013,03,17,20,07,20.90
2013,03,17,20,08,12.90
2013,03,17,20,09,20.90
2013,03,17,20,10,11.30
2013,03,17,20,11,14.50
2013,03,17,20,12,16.10
2013,03,17,20,13,25.70
2013,03,17,20,14,30.60
2013,03,17,20,15,20.90
2013,03,17,20,16,16.10
2013,03,17,20,17,20.90
2013,03,17,20,18,17.70
2013,03,17,20,19,12.90
2013,03,17,20,20,11.30
2013,03,17,20,21,27.40
2013,03,17,20,22,22.50
2013,03,17,20,23,29.00
2013,03,17,20,24,20.90
2013,03,17,20,25,12.90
2013,03,17,20,26,16.10
2013,03,17,20,27,9.60
2013,03,17,20,28,4.80
2013,03,17,20,29,11.30
2013,03,17,20,30,17.70
2013,03,17,20,31,16.10
2013,03,17,20,32,11.30
2013,03,17,20,33,11.30
2013,03,17,20,34,9.60
2013,03,17,20,35,8.10
2013,03,17,20,36,16.10
2013,03,17,20,37,12.90
2013,03,17,20,38,6.40
2013,03,17,20,40,14.50
2013,03,17,20,41,16.10
2013,03,17,20,42,17.70
2013,03,17,20,43,17.70
2013,03,17,20,44,12.90
2013,03,17,20,45,14.50
2013,03,17,20,46,14.50
2013,03,17,20,47,29.00
2013,03,17,20,48,11.30
2013,03,17,20,49,17.70
2013,03,17,20,50,17.70
2013,03,17,20,51,9.60
2013,03,17,20,52,8.10
2013,03,17,20,53,14.50
2013,03,17,20,54,11.30
2013,03,17,20,55,12.90
2013,03,17,20,56,12.90
2013,03,17,20,57,9.60
2013,03,17,20,58,8.10
2013,03,17,20,59,11.30
2013,03,17,21,00,11.30
2013,03,17,21,01,9.60
2013,03,17,21,02,3.20
2013,03,17,21,03,8.10
2013,03,17,21,04,12.90
2013,03,17,21,05,4.80
2013,03,17,21,06,8.10
2013,03,17,21,07,6.40
2013,03,17,21,08,12.90
2013,03,17,21,10,9.60
2013,03,17,21,11,8.10
2013,03,17,21,12,16.10
2013,03,17,21,13,12.90
2013,03,17,21,14,6.40
2013,03,17,21,15,22.50
2013,03,17,21,16,12.90
2013,03,17,21,17,22.50
2013,03,17,21,18,11.30
2013,03,17,21,20,19.30
2013,03,17,21,21,19.30
2013,03,17,21,22,17.70
2013,03,17,21,23,11.30
2013,03,17,21,24,11.30
2013,03,17,21,25,11.30
2013,03,17,21,26,8.10
2013,03,17,21,27,6.40
2013,03,17,21,28,1.60
2013,03,17,21,29,14.50
2013,03,17,21,30,12.90
2013,03,17,21,31,1.60
2013,03,17,21,32,17.70
2013,03,17,21,33,14.50
2013,03,17,21,34,9.60
2013,03,17,21,36,12.90
2013,03,17,21,37,11.30
2013,03,17,21,38,11.30
2013,03,17,21,39,11.30
2013,03,17,21,40,17.70
2013,03,17,21,41,17.70
2013,03,17,21,42,17.70
2013,03,17,21,43,24.20
2013,03,17,21,44,19.30